THORAD AGENA D DEB, 4946

Orbit data source: Space-Track

THORAD AGENA D DEB, 4946 is space debris in SSO originally from a launch on Wed, 08 Apr 1970 UTC launched from the Air Force Western Test Range (AFWTR). Debris objects in space refer to the collection of defunct objects orbiting the Earth. Examples of debris include non-operational satellites, rocket bodies, and fragments generated from explosions, collisions, or faulty payload assembly.

Loading next visibility...
Identifier
4946, 1970-025GG
Orbit
SSO
Country
Flag of USUS
Related business
Manufacturer
Unknown
Mission
Spacecraft
Bus & Motor
Unknown
Mass
Unknown
Launch date (UTC)
1970-04-08 (56 years ago)
Launch vehicle
Unknown
Launch site
Air Force Western Test Range (AFWTR)
Object type
Payload
Rocket body
Debris
Shape & HBR
Unknown shape, 0.1 m
Radar Cross Section
Small (<0.1 m²)

Expand to show TLE details & history
Last TLE update: 1 day ago

TLE from 1 day ago
0 THORAD AGENA D DEB
1 04946U 70025GG  26036.26816615  .00001610  00000-0  15019-2 0  9995
2 04946  99.6614 157.9044 0013396 303.6690  86.0462 13.83531683784768
Epoch: 2026-02-05T06:26Z
TLE epoch observation values (Epoch: 2026-02-05T06:26:09.555Z)
Latitude
29.45187°
Longitude
-79.54567°
Altitude
954.316 km
Speed
7.378 km/s
True Right ascension
10h 09m 40s
True Declination
29° 18' 32"
Sunlit
Object was in full shadow at epoch
Visualization orbit readout
Latitude
Unknown
Longitude
Unknown
Altitude
Unknown
Speed
Unknown
Apparent Right ascension
Unknown
Apparent Declination
Unknown
Sunlit
N/A
Visualization observer readout
Local Sidereal Time
10:17:59
Azimuth
Unknown
Elevation
Unknown
Doppler factor
Unknown
Orbital elements
Apogee altitude
958.457 km
Perigee altitude
938.827 km
Semi-major axis
7,326.779 km
Eccentricity
0.00134
Inclination
99.6614°
RAAN
157.9044°
Arg. of periapsis
303.669°
True anomaly
86.19936°
Mean anomaly
86.0462°
Eccentric anomaly
86.12278°
Mean motion
3.46078 °/min
Orbital period
104.02 mins
BSTAR
0.0015019
Loading maneuver chart data...
Computing Atmospheric mass density...

Documentation

Showing up to 5 results
|